Location: Henham
(51.9333°N, 0.2500°E)
Time: 08:46:53
(UTC+00:00)

STARLINK-78 - Pass Details

Date: 23 October 2019
Orbit: 549 x 551 km, 53.0° (Epoch: 20 November)

Event Time Altitude Azimuth Distance (km) Brightness Sun altitude
Rises 17:38:59 0° 273° (W) 2,718 9.2 -8.3°
Reaches altitude 10° 17:41:13 10° 275° (W) 1,825 7.8 -8.7°
Maximum altitude 17:45:22 75° 1° (N) 573 3.7 -9.3°
Enters shadow 17:48:57 14° 86° (E) 1,601 5.3 -9.9°
